Date String (YYYY-MM-DD hh:mm:ss) UTC,Instrument flags,absolute air pressure of the measurement (hPa),sample flow rate (lpm),inlet stack bypass flow (lpm),air temperature of the measurement (°C),ambient temperature measured by the external sensor (°C),aerosol sample conditioner tube jacket temperature (°C),OPC LED temperature (°C),internal box temperature (°C),relative humidity of the measurement (%),span deviation,mass concentration of particles derived from Lorenz-Mie calculation of OPC scattering (μg/m³),mass concentration of particles derived from Lorenz-Mie calculation of OPC scattering (μg/m³),mass concentration of particles derived from Lorenz-Mie calculation of OPC scattering (μg/m³)
DateTimeUTC,F1_M11,P_M11,Q1_M11,Q2_M11,T1_M11,T2_M11,T3_M11,T4_M11,T5_M11,U1_M11,ZSPAN_M11,X0_M11,X2_M11,X1_M11
2024-01-20 21:00:00,SystemResetWarning,0824.9,4.99,000.00,018.9,018.4,000.0,027.2,020.2,15.7,0001.8,0024.05,0016.05,0015.20
2024-01-20 21:01:00,SystemResetWarning,0824.9,4.99,000.00,018.9,018.4,000.0,027.2,020.2,15.8,0001.9,0023.62,0015.99,0015.13
2024-01-20 21:02:00,SystemResetWarning,0824.9,4.99,000.00,018.9,018.4,000.0,027.2,020.2,15.7,0002.3,0022.92,0015.94,0015.05
2024-01-20 21:03:00,SystemResetWarning,0824.9,5.00,000.00,019.0,018.4,000.0,027.2,020.2,15.8,0002.3,0022.85,0015.91,0015.00
2024-01-20 21:04:00,SystemResetWarning,0824.9,5.01,000.00,019.0,018.4,000.0,027.2,020.3,15.7,0002.5,0022.62,0015.87,0014.94
2024-01-20 21:05:00,SystemResetWarning,0824.9,5.01,000.00,019.0,018.5,000.0,027.3,020.3,15.6,0002.8,0022.42,0015.82,0014.94
2024-01-20 21:06:00,SystemResetWarning,0824.9,4.99,000.00,019.0,018.5,000.0,027.3,020.3,15.6,0003.0,0022.01,0015.80,0014.95
2024-01-20 21:07:00,SystemResetWarning,0824.9,5.00,000.00,019.0,018.5,000.0,027.3,020.3,15.7,0002.8,0021.20,0015.76,0014.94
2024-01-20 21:08:00,SystemResetWarning,0824.9,5.00,000.00,019.0,018.5,000.0,027.3,020.4,15.7,0002.7,0021.42,0015.75,0014.94
2024-01-20 21:09:00,SystemResetWarning,0824.9,5.01,000.00,019.1,018.6,000.0,027.3,020.4,15.9,0002.5,0021.86,0015.72,0014.91
2024-01-20 21:10:00,SystemResetWarning,0824.8,5.01,000.00,019.1,018.6,000.0,027.3,020.4,15.7,0002.6,0021.52,0015.67,0014.85
2024-01-20 21:11:00,SystemResetWarning,0824.8,5.00,000.00,019.1,018.6,000.0,027.3,020.4,16.0,0002.6,0021.44,0015.64,0014.80
2024-01-20 21:12:00,SystemResetWarning,0824.8,5.00,000.00,019.1,018.6,000.0,027.3,020.5,15.9,0002.3,0021.41,0015.64,0014.81
2024-01-20 21:13:00,SystemResetWarning,0824.7,4.99,000.00,019.1,018.6,000.0,027.3,020.5,15.8,0001.9,0021.66,0015.62,0014.82
2024-01-20 21:14:00,SystemResetWarning,0824.7,4.99,000.00,019.2,018.7,000.0,027.3,020.5,15.8,0001.5,0021.68,0015.60,0014.83
2024-01-20 21:15:00,SystemResetWarning,0824.7,5.00,000.00,019.2,018.7,000.0,027.4,020.6,16.0,0001.5,0022.04,0015.57,0014.84
2024-01-20 21:16:00,SystemResetWarning,0824.7,5.00,000.00,019.2,018.7,000.0,027.4,020.6,15.9,0001.4,0022.19,0015.54,0014.86
2024-01-20 21:17:00,SystemResetWarning,0824.7,5.01,000.00,019.2,018.7,000.0,027.4,020.6,15.7,0001.4,0022.32,0015.57,0014.88
2024-01-20 21:18:00,SystemResetWarning,0824.8,5.01,000.00,019.2,018.8,000.0,027.4,020.6,15.6,0001.5,0023.15,0015.66,0014.92
2024-01-20 21:19:00,SystemResetWarning,0824.8,5.00,000.00,019.3,018.8,000.0,027.4,020.6,15.6,0001.6,0023.04,0015.71,0014.97
2024-01-20 21:20:00,SystemResetWarning,0824.8,5.00,000.00,019.3,018.8,000.0,027.4,020.7,15.6,0001.6,0022.79,0015.79,0015.03
2024-01-20 21:21:00,SystemResetWarning,0824.8,4.99,000.00,019.3,018.8,000.0,027.5,020.7,15.8,0002.0,0022.75,0015.84,0015.06
2024-01-20 21:22:00,SystemResetWarning,0824.8,5.00,000.00,019.3,018.8,000.0,027.5,020.7,15.9,0002.1,0022.63,0015.83,0015.07
2024-01-20 21:23:00,SystemResetWarning,0824.8,5.00,000.00,019.3,018.8,000.0,027.5,020.7,15.8,0002.4,0022.78,0015.83,0015.05
2024-01-20 21:24:00,SystemResetWarning,0824.8,4.99,000.00,019.4,018.8,000.0,027.5,020.7,15.8,0002.8,0023.17,0015.87,0015.05
2024-01-20 21:25:00,SystemResetWarning,0824.7,5.01,000.00,019.4,018.8,000.0,027.5,020.7,15.6,0002.7,0023.41,0015.89,0015.06
2024-01-20 21:26:00,SystemResetWarning,0824.7,5.00,000.00,019.4,018.8,000.0,027.6,020.7,15.4,0002.5,0023.44,0015.93,0015.07
2024-01-20 21:27:00,SystemResetWarning,0824.7,5.00,000.00,019.4,018.8,000.0,027.6,020.7,15.5,0002.4,0023.11,0015.96,0015.09
2024-01-20 21:28:00,SystemResetWarning,0824.7,5.00,000.00,019.4,018.8,000.0,027.6,020.7,15.4,0002.5,0023.27,0015.98,0015.08
2024-01-20 21:29:00,SystemResetWarning,0824.7,5.00,000.00,019.4,018.8,000.0,027.6,020.7,15.4,0002.1,0022.63,0015.95,0015.08
2024-01-20 21:30:00,SystemResetWarning,0824.7,5.00,000.00,019.4,018.8,000.0,027.6,020.7,15.4,0001.9,0022.87,0015.91,0015.06
2024-01-20 21:31:00,SystemResetWarning,0824.8,5.00,000.00,019.4,018.8,000.0,027.6,020.7,15.4,0001.9,0023.40,0015.86,0015.04
2024-01-20 21:32:00,SystemResetWarning,0824.7,5.00,000.00,019.4,018.8,000.0,027.6,020.7,15.4,0001.6,0024.66,0015.85,0015.05
2024-01-20 21:33:00,SystemResetWarning,0824.8,5.00,000.00,019.4,018.8,000.0,027.6,020.7,15.4,0001.5,0025.61,0015.87,0015.07
2024-01-20 21:34:00,SystemResetWarning,0824.8,5.00,000.00,019.4,018.8,000.0,027.6,020.7,15.4,0001.2,0025.64,0015.86,0015.05
2024-01-20 21:35:00,SystemResetWarning,0824.8,5.00,000.00,019.4,018.9,000.0,027.7,020.8,15.4,0000.6,0025.67,0015.80,0015.02
2024-01-20 21:36:00,SystemResetWarning,0824.8,5.00,000.00,019.5,018.9,000.0,027.7,020.8,15.5,0000.5,0025.75,0015.77,0015.01
2024-01-20 21:37:00,SystemResetWarning,0824.8,5.01,000.00,019.5,018.9,000.0,027.7,020.8,15.5,0000.6,0025.71,0015.74,0015.00
2024-01-20 21:38:00,SystemResetWarning,0824.7,5.01,000.00,019.5,019.0,000.0,027.7,020.8,15.5,0000.4,0026.12,0015.72,0014.99
2024-01-20 21:39:00,SystemResetWarning,0824.8,5.00,000.00,019.5,019.0,000.0,027.7,020.8,15.5,0000.1,0026.72,0015.71,0014.98
2024-01-20 21:40:00,SystemResetWarning,0824.7,5.00,000.00,019.5,019.0,000.0,027.7,020.8,15.6,0000.4,0027.39,0015.71,0014.96
2024-01-20 21:41:00,SystemResetWarning,0824.7,5.00,000.00,019.5,019.0,000.0,027.8,020.8,15.5,0000.6,0027.07,0015.66,0014.92
2024-01-20 21:42:00,SystemResetWarning,0824.7,5.00,000.00,019.5,019.0,000.0,027.8,020.8,15.5,0000.6,0026.48,0015.63,0014.89
2024-01-20 21:43:00,SystemResetWarning,0824.7,5.00,000.00,019.5,019.0,000.0,027.8,020.8,15.4,0000.6,0025.08,0015.62,0014.89
2024-01-20 21:44:00,SystemResetWarning,0824.8,5.00,000.00,019.6,019.0,000.0,027.8,020.9,15.5,0000.6,0024.37,0015.71,0014.98
2024-01-20 21:45:00,SystemResetWarning,0824.8,5.00,000.00,019.6,019.0,000.0,027.8,020.9,15.5,0000.6,0024.44,0015.80,0015.08
2024-01-20 21:46:00,SystemResetWarning,0824.8,5.00,000.00,019.6,019.1,000.0,027.8,020.9,15.5,0000.6,0024.08,0015.92,0015.19
2024-01-20 21:47:00,SystemResetWarning,0824.8,5.00,000.00,019.6,019.1,000.0,027.8,020.9,15.4,0000.8,0023.97,0016.04,0015.28
2024-01-20 21:48:00,SystemResetWarning,0824.8,5.00,000.00,019.6,019.1,000.0,027.8,020.9,15.5,0000.9,0023.62,0016.16,0015.38
2024-01-20 21:49:00,SystemResetWarning,0824.8,5.00,000.00,019.6,019.1,000.0,027.8,021.0,15.5,0001.2,0023.28,0016.28,0015.48
2024-01-20 21:50:00,SystemResetWarning,0824.8,5.00,000.00,019.6,019.1,000.0,027.9,021.0,15.4,0001.4,0022.74,0016.44,0015.59
2024-01-20 21:51:00,SystemResetWarning,0824.7,5.00,000.00,019.6,019.1,000.0,027.9,021.0,15.4,0001.7,0022.19,0016.52,0015.67
2024-01-20 21:52:00,SystemResetWarning,0824.7,5.00,000.00,019.7,019.2,000.0,027.9,021.0,15.4,0001.8,0022.52,0016.62,0015.75
2024-01-20 21:53:00,SystemResetWarning,0824.7,5.00,000.00,019.7,019.2,000.0,027.9,021.0,15.6,0001.7,0022.98,0016.71,0015.83
2024-01-20 21:54:00,SystemResetWarning,0824.7,5.00,000.00,019.7,019.2,000.0,027.9,021.0,15.5,0001.8,0023.09,0016.76,0015.88
2024-01-20 21:55:00,SystemResetWarning,0824.7,5.00,000.00,019.7,019.2,000.0,027.9,021.0,15.4,0001.5,0023.24,0016.80,0015.89
2024-01-20 21:56:00,SystemResetWarning,0824.7,5.00,000.00,019.7,019.2,000.0,027.9,021.0,15.5,0001.4,0023.07,0016.79,0015.88
2024-01-20 21:57:00,SystemResetWarning,0824.7,5.00,000.00,019.7,019.2,000.0,028.0,021.0,15.5,0001.7,0023.12,0016.77,0015.85
2024-01-20 21:58:00,SystemResetWarning,0824.7,5.00,000.00,019.8,019.2,000.0,028.0,021.1,15.4,0001.9,0022.81,0016.78,0015.84
2024-01-20 21:59:00,SystemResetWarning,0824.7,5.00,000.00,019.8,019.2,000.0,028.0,021.1,15.4,0001.9,0022.92,0016.77,0015.81
